sat.trackr.live / text

‹ back to catalog

STARLINK-5944

NORAD 56001 · 2023-042R

PAYLOAD ACTIVE UNKNOWN

§ Identity

Operator
Country
US
Launch date
2023-03-24
Launch site
AFETR
Launch vehicle
Mass (kg)
RCS (m²)

Purposes: comms

External: N2YO · Heavens-Above · Gunter

§ Orbital elements

Epoch: 2026-05-24T22:44:20.307264Z

Period
94.27 min
Inclination
43.0022°
Eccentricity
0.0001090
Mean motion
15.27581279 rev/d
Perigee alt
482.3 km
Apogee alt
483.8 km
Semi-major
6,861.2 km
B*
-2.4496e-6
RAAN
353.0739°
Arg perigee
269.7416°
Mean anomaly
90.3311°
Rev number
17,448

§ Raw data

STARLINK-59441 56001U 23042R   26144.94745726 -.00000329  00000+0 -24496-5 0  99992 56001  43.0022 353.0739 0001090 269.7416  90.3311 15.27581279174488

JSON: /api/v1/satellites/56001 · /tle

For live sub-satellite position, see the globe view (requires WebGL).

§ Visibility from observer

Set your observer location to see the next 7 days of passes ≥ 10°. The values pass through the URL so the page stays shareable.

No JS? Fill the form by hand. The geolocation button needs JavaScript.